Lakeville, MN

8:19 PM CST on January 20, 2017 (GMT -0600)
Airlake

Weather History for KLVN - December, 2012

Change the Weather History Date:

Wednesday, December 5, 2012

  Actual Average Record
Temperature  
Mean Temperature 24 °F -  
Max Temperature 37 °F 30 °F 62 °F (2001)
Min Temperature 12 °F 13 °F -8 °F (1955)
Degree Days  
Heating Degree Days 40    
Moisture  
Dew Point 16 °F    
Average Humidity 63    
Maximum Humidity 92    
Minimum Humidity 44    
Precipitation  
Precipitation 0.00 in - - ()
Sea Level Pressure  
Sea Level Pressure 30.17 in    
Wind  
Wind Speed 7 mph (SE)    
Max Wind Speed 18 mph    
Max Gust Speed 28 mph    
Visibility 10 miles    
Events      
Averages and records for this station are not official NWS values.
T = Trace of Precipitation, MM = Missing Value Source: NWS Daily Summary

Daily Weather History Graph

Daily Weather History Graph

Search for Another Location

Airport or City:

Trip Planner

Search our weather history database for the weather conditions in past years. The results will help you decide how hot, cold, wet, or windy it might be!

Date:

Astronomy

Dec. 05, 2012 Rise Set
Actual Time 7:34 AM CST 4:32 PM CST
Civil Twilight 7:01 AM CST 5:06 PM CST
Nautical Twilight 6:24 AM CST 5:42 PM CST
Astronomical Twilight 5:49 AM CST 6:17 PM CST
Moon 11:35 PM CST (12/5) 11:47 AM CST (12/5)
Length of Visible Light 10h 04m
Length of Day
8h 58m
Waning Gibbous, 59% of the Moon is Illuminated
Dec 5
Waning Gibbous
Dec 6
Last Quarter
Dec 13
New
Dec 19
First Quarter
Dec 28
Full

Hourly Weather History & Observations

Time (CST) Temp. Windchill Dew Point Humidity Pressure Visibility Wind Dir Wind Speed Gust Speed Precip Events Conditions
12:12 AM 17.6 °F - 10.4 °F 73% 30.39 in 10.0 mi Calm Calm - N/A   Clear
12:33 AM 15.8 °F - 10.4 °F 79% 30.39 in 10.0 mi Calm Calm - N/A   Clear
12:53 AM 15.8 °F - 10.4 °F 79% 30.39 in 10.0 mi Calm Calm - N/A   Clear
1:12 AM 15.8 °F - 10.4 °F 79% 30.39 in 10.0 mi Calm Calm - N/A   Clear
1:52 AM 17.6 °F - 10.4 °F 73% 30.39 in 10.0 mi Calm Calm - N/A   Clear
2:12 AM 15.8 °F - 10.4 °F 79% 30.39 in 10.0 mi Calm Calm - N/A   Clear
2:32 AM 15.8 °F 10.2 °F 10.4 °F 79% 30.39 in 10.0 mi East 3.5 mph - N/A   Clear
2:52 AM 15.8 °F - 10.4 °F 79% 30.39 in 10.0 mi Calm Calm - N/A   Clear
3:13 AM 15.8 °F - 10.4 °F 79% 30.39 in 10.0 mi Calm Calm - N/A   Clear
3:33 AM 14.0 °F - 10.4 °F 86% 30.39 in 10.0 mi Calm Calm - N/A   Clear
3:52 AM 14.0 °F - 10.4 °F 86% 30.39 in 10.0 mi Calm Calm - N/A   Clear
4:13 AM 14.0 °F - 10.4 °F 86% 30.40 in 10.0 mi Calm Calm - N/A   Clear
4:33 AM 14.0 °F - 10.4 °F 86% 30.38 in 10.0 mi Calm Calm - N/A   Clear
4:52 AM 14.0 °F - 10.4 °F 86% 30.38 in 10.0 mi Calm Calm - N/A   Clear
5:13 AM 14.0 °F 8.2 °F 10.4 °F 86% 30.37 in 10.0 mi ESE 3.5 mph - N/A   Clear
5:33 AM 14.0 °F 6.5 °F 10.4 °F 86% 30.37 in 10.0 mi ESE 4.6 mph - N/A   Clear
5:52 AM 12.2 °F 6.1 °F 8.6 °F 85% 30.37 in 10.0 mi East 3.5 mph - N/A   Clear
6:13 AM 12.2 °F 4.3 °F 8.6 °F 85% 30.37 in 10.0 mi East 4.6 mph - N/A   Clear
6:33 AM 12.2 °F 2.9 °F 10.4 °F 92% 30.36 in 10.0 mi East 5.8 mph - N/A   Clear
6:52 AM 12.2 °F 4.3 °F 10.4 °F 92% 30.36 in 10.0 mi East 4.6 mph - N/A   Clear
8:32 AM 17.6 °F 8.2 °F 12.2 °F 79% 30.34 in 10.0 mi SE 6.9 mph - N/A   Clear
8:53 AM 19.4 °F 10.4 °F 12.2 °F 74% 30.34 in 10.0 mi ESE 6.9 mph - N/A   Clear
9:13 AM 21.2 °F 9.5 °F 15.8 °F 80% 30.32 in 10.0 mi SE 11.5 mph 16.1 mph N/A   Clear
9:32 AM 23.0 °F 10.1 °F 15.8 °F 74% 30.32 in 10.0 mi SE 15.0 mph - N/A   Clear
9:53 AM 23.0 °F 11.7 °F 15.8 °F 74% 30.32 in 10.0 mi SE 11.5 mph - N/A   Clear
10:13 AM 24.8 °F 13.4 °F 15.8 °F 69% 30.30 in 10.0 mi ESE 12.7 mph 18.4 mph N/A   Clear
10:32 AM 26.6 °F 15.7 °F 15.8 °F 64% 30.29 in 10.0 mi ESE 12.7 mph 17.3 mph N/A   Clear
10:53 AM 26.6 °F 15.7 °F 14.0 °F 59% 30.27 in 10.0 mi SE 12.7 mph - N/A   Clear
11:13 AM 28.4 °F 18.0 °F 15.8 °F 59% 30.25 in 10.0 mi ESE 12.7 mph 16.1 mph N/A   Clear
11:32 AM 30.2 °F 20.2 °F 14.0 °F 51% 30.23 in 10.0 mi SE 12.7 mph - N/A   Clear
11:52 AM 32.0 °F 22.5 °F 14.0 °F 48% 30.22 in 10.0 mi ESE 12.7 mph - N/A   Clear
12:13 PM 32.0 °F 21.6 °F 14.0 °F 48% 30.21 in 10.0 mi SE 15.0 mph - N/A   Clear
12:32 PM 33.8 °F 23.9 °F 14.0 °F 44% 30.20 in 10.0 mi SE 15.0 mph 19.6 mph N/A   Clear
12:52 PM 33.8 °F 24.3 °F 14.0 °F 44% 30.19 in 10.0 mi SE 13.8 mph 18.4 mph N/A   Clear
1:13 PM 33.8 °F 24.8 °F 15.8 °F 48% 30.17 in 10.0 mi SE 12.7 mph 19.6 mph N/A   Clear
1:32 PM 35.6 °F 26.6 °F 15.8 °F 44% 30.15 in 10.0 mi SE 13.8 mph - N/A   Clear
2:12 PM 35.6 °F 25.2 °F 15.8 °F 44% 30.12 in 10.0 mi SE 18.4 mph - N/A   Clear
2:32 PM 35.6 °F 25.9 °F 15.8 °F 44% 30.11 in 10.0 mi SE 16.1 mph 19.6 mph N/A   Clear
2:53 PM 35.6 °F 27.5 °F 15.8 °F 44% 30.10 in 10.0 mi SE 11.5 mph 16.1 mph N/A   Clear
3:12 PM 35.6 °F 26.2 °F 15.8 °F 44% 30.09 in 10.0 mi SE 15.0 mph 21.9 mph N/A   Clear
3:32 PM 35.6 °F 25.5 °F 15.8 °F 44% 30.08 in 10.0 mi SE 17.3 mph - N/A   Clear
3:53 PM 35.6 °F 25.2 °F 15.8 °F 44% 30.08 in 10.0 mi SE 18.4 mph 23.0 mph N/A   Clear
4:12 PM 33.8 °F 24.3 °F 17.6 °F 52% 30.06 in 10.0 mi SE 13.8 mph 19.6 mph N/A   Clear
4:32 PM 33.8 °F 24.8 °F 17.6 °F 52% 30.06 in 10.0 mi SE 12.7 mph - N/A   Scattered Clouds
4:53 PM 33.8 °F 24.8 °F 17.6 °F 52% 30.04 in 10.0 mi SE 12.7 mph 25.3 mph N/A   Scattered Clouds
5:12 PM 33.8 °F 23.9 °F 17.6 °F 52% 30.03 in 10.0 mi SE 15.0 mph 20.7 mph N/A   Scattered Clouds
5:32 PM 33.8 °F 23.5 °F 17.6 °F 52% 30.02 in 10.0 mi SE 16.1 mph 21.9 mph N/A   Scattered Clouds
5:53 PM 33.8 °F 23.9 °F 17.6 °F 52% 30.00 in 10.0 mi SE 15.0 mph 20.7 mph N/A   Clear
6:13 PM 33.8 °F 24.8 °F 17.6 °F 52% 29.99 in 10.0 mi SE 12.7 mph 18.4 mph N/A   Clear
6:32 PM 35.6 °F 27.1 °F 17.6 °F 48% 29.98 in 10.0 mi SE 12.7 mph 20.7 mph N/A   Clear
6:53 PM 35.6 °F 26.2 °F 19.4 °F 52% 29.98 in 10.0 mi SE 15.0 mph 19.6 mph N/A   Scattered Clouds
7:13 PM 35.6 °F 25.9 °F 19.4 °F 52% 29.96 in 10.0 mi SSE 16.1 mph 25.3 mph N/A   Mostly Cloudy
7:32 PM 35.6 °F 25.9 °F 19.4 °F 52% 29.96 in 10.0 mi SSE 16.1 mph 21.9 mph N/A   Overcast
7:53 PM 35.6 °F 25.9 °F 19.4 °F 52% 29.95 in 10.0 mi SSE 16.1 mph 21.9 mph N/A   Mostly Cloudy
8:12 PM 35.6 °F 27.5 °F 19.4 °F 52% 29.96 in 10.0 mi SSE 11.5 mph 18.4 mph N/A   Mostly Cloudy
8:33 PM 37.4 °F 29.3 °F 21.2 °F 52% 29.95 in 10.0 mi SSE 12.7 mph 19.6 mph N/A   Scattered Clouds
8:52 PM 37.4 °F 28.9 °F 21.2 °F 52% 29.94 in 10.0 mi SSE 13.8 mph 19.6 mph N/A   Scattered Clouds
9:13 PM 37.4 °F 27.8 °F 21.2 °F 52% 29.94 in 10.0 mi SSE 17.3 mph 23.0 mph N/A   Scattered Clouds
9:32 PM 37.4 °F 29.8 °F 21.2 °F 52% 29.94 in 10.0 mi SSE 11.5 mph 25.3 mph N/A   Scattered Clouds
9:52 PM 37.4 °F 27.5 °F 23.0 °F 56% 29.93 in 10.0 mi SSE 18.4 mph 27.6 mph N/A   Scattered Clouds
10:13 PM 37.4 °F 28.5 °F 23.0 °F 56% 29.92 in 10.0 mi SSE 15.0 mph 24.2 mph N/A   Scattered Clouds
10:32 PM 37.4 °F 28.5 °F 23.0 °F 56% 29.92 in 10.0 mi SSE 15.0 mph 21.9 mph N/A   Scattered Clouds
10:52 PM 37.4 °F 28.2 °F 24.8 °F 60% 29.90 in 10.0 mi SSE 16.1 mph 21.9 mph N/A   Scattered Clouds
11:13 PM 37.4 °F 28.5 °F 24.8 °F 60% 29.89 in 10.0 mi SSE 15.0 mph 21.9 mph N/A   Mostly Cloudy
11:32 PM 37.4 °F 28.5 °F 24.8 °F 60% 29.88 in 10.0 mi SSE 15.0 mph 20.7 mph N/A   Overcast
11:52 PM 37.4 °F 29.3 °F 24.8 °F 60% 29.87 in 10.0 mi SSE 12.7 mph 24.2 mph N/A   Scattered Clouds